Theta_e
317 317 315 315 315 314 314 314 313 313 314 314 314 314 314 315 307 292 290 302 305 314 306 293 292 293 295 292 294 292 284 280 281 281 284 289 288 293 294 291 293 295 295 298 306
316 316 315 314 314 314 314 314 313 313 312 313 314 314 314 313 296 289 300 312 312 311 292 289 287 292 290 290 291 288 282 282 286 287 286 289 289 291 291 290 291 293 297 300 305
316 315 314 314 314 313 313 313 313 312 312 311 312 314 314 303 289 287 306 310 310 301 291 290 290 292 288 290 289 287 283 286 287 289 291 290 290 293 291 288 291 291 294 299 304
315 314 314 313 313 312 312 313 313 312 312 312 313 313 304 292 279 288 308 307 306 294 291 293 292 289 286 285 289 284 287 288 289 291 290 289 292 291 290 290 296 298 298 299 302
315 314 313 313 312 312 312 313 312 312 311 312 313 310 293 284 284 291 304 297 291 291 289 289 289 289 286 287 288 285 287 289 291 290 291 293 290 288 287 292 296 298 297 298 301
314 314 313 312 311 312 312 312 312 311 311 310 312 307 287 280 289 291 290 290 289 289 289 290 290 292 289 287 286 288 288 288 289 289 290 289 287 287 288 292 292 294 296 299 300
314 313 312 311 311 312 312 312 312 310 309 309 311 296 286 283 291 290 290 289 289 289 290 292 296 291 290 286 288 287 283 284 286 288 288 291 284 283 288 290 289 290 292 299 300
314 313 312 310 310 311 311 311 312 312 310 309 304 292 283 290 292 289 290 289 290 291 291 295 297 293 287 288 285 282 281 278 285 287 290 289 280 285 288 287 286 287 289 290 293
313 312 311 310 310 310 310 310 311 308 308 304 290 286 281 293 287 287 288 286 287 291 294 295 292 286 285 280 279 278 274 276 280 287 288 284 280 286 287 285 285 285 286 288 290
312 312 310 310 309 309 307 308 303 298 293 293 291 284 285 283 287 288 290 288 286 288 290 286 284 281 281 278 272 274 274 276 277 283 284 282 280 284 285 284 283 284 284 285 287
312 311 310 308 308 306 297 290 288 285 286 282 283 283 284 286 287 287 287 285 286 283 278 281 279 275 276 278 279 278 276 276 279 284 282 281 280 281 284 283 282 283 283 284 285
311 309 309 307 307 303 294 289 287 287 281 285 285 285 286 284 281 285 287 281 281 277 278 279 275 279 280 281 280 279 277 276 280 283 283 282 278 281 283 282 282 282 282 283 284
309 308 307 306 303 296 292 291 295 292 281 283 284 284 283 284 280 281 284 282 278 276 276 275 279 281 280 279 277 278 277 276 276 281 286 282 279 278 282 283 283 282 283 283 283
308 306 304 306 296 292 291 295 296 292 276 280 281 283 284 283 280 285 285 282 279 275 276 277 280 279 279 277 278 274 281 278 278 279 275 280 273 276 278 278 279 280 280 282 282
306 305 302 301 291 288 292 295 294 292 272 280 280 286 283 280 280 282 286 283 277 276 276 276 276 276 277 278 279 277 280 278 280 280 276 276 274 275 277 274 276 278 280 281 282
305 302 301 294 292 291 295 293 292 280 272 278 280 279 277 278 278 280 280 283 281 276 277 276 278 278 279 280 280 281 278 279 278 276 268 272 272 270 272 274 275 278 279 280 281
303 301 296 293 287 293 294 290 280 274 278 276 276 278 276 274 276 276 271 272 272 266 265 272 276 278 279 277 279 278 272 267 268 267 269 275 272 269 276 277 276 276 278 280 280
304 298 296 293 294 293 291 284 273 278 275 277 277 277 274 274 274 274 274 270 274 269 264 266 267 274 279 277 274 275 272 264 262 266 269 276 269 273 278 279 278 278 279 280 279
302 293 292 293 294 292 286 275 278 277 277 276 276 274 272 275 273 272 270 269 274 272 265 262 269 276 279 279 277 275 269 276 268 269 269 271 273 277 278 277 276 276 277 277 278
294 293 291 295 294 289 283 281 276 278 279 278 274 273 271 272 271 268 267 273 273 278 275 272 264 274 277 279 278 276 277 268 267 262 262 269 268 270 272 272 275 274 275 276 278
296 290 293 294 291 286 280 279 277 279 279 277 274 272 272 270 270 269 268 274 277 276 277 270 263 269 275 273 271 272 267 271 270 269 264 265 268 274 271 273 273 274 275 277 277
293 287 294 293 285 280 279 278 281 278 279 278 276 275 272 272 269 268 270 272 280 278 272 277 263 262 268 274 274 274 271 270 266 265 268 267 269 277 273 275 274 274 275 277 277
290 287 294 292 281 278 278 278 279 278 277 277 275 277 275 272 268 272 273 279 280 279 274 272 261 259 263 267 273 271 272 271 270 268 264 265 270 277 276 275 275 273 275 276 276
289 284 286 286 284 280 277 277 276 280 278 278 277 277 274 272 273 270 272 277 279 279 282 276 266 262 262 263 266 263 267 270 267 266 262 264 267 273 273 272 273 274 275 275 276
290 285 285 279 280 280 281 279 276 275 278 278 276 276 273 266 267 269 273 273 277 278 275 268 262 262 268 270 272 271 265 267 262 267 265 266 264 270 271 271 273 275 274 274 274
286 284 285 281 280 279 279 276 277 276 276 275 275 275 273 270 271 269 269 269 271 272 263 266 263 266 262 273 270 270 272 269 269 270 268 267 268 271 274 274 274 274 274 273 274
289 289 290 282 279 278 277 278 278 278 278 278 277 275 273 275 274 274 274 273 274 268 262 260 259 259 259 266 261 263 263 266 268 267 268 267 270 272 271 273 273 274 274 273 274
Wind_Speed
11 11 11 11 11 11 9 7 5 5 6 6 6 7 8 9 4 5 5 10 21 26 12 6 4 5 2 3 2 3 1 4 5 6 8 12 18 20 11 14 17 18 17 18 11
10 11 11 11 11 10 9 7 5 5 5 6 7 8 10 4 3 4 10 24 26 21 5 6 6 6 3 2 1 2 2 5 5 7 15 20 18 21 12 16 19 18 18 16 10
9 10 11 11 10 10 8 6 5 5 6 6 7 10 7 2 4 4 17 28 24 10 1 1 0 1 3 2 0 2 4 2 15 15 13 15 20 15 12 9 14 21 19 12 6
9 10 11 11 10 9 9 7 5 5 6 6 9 10 4 2 4 5 26 26 16 6 3 3 4 4 3 4 2 3 6 7 10 14 11 14 15 14 12 13 19 21 18 11 6
9 10 10 11 11 9 9 8 5 5 5 7 10 7 2 7 2 6 25 15 4 4 4 3 5 2 3 3 5 3 4 11 13 16 9 10 14 11 23 25 22 19 9 11 4
9 10 10 11 10 10 9 8 6 5 5 6 9 4 5 6 1 8 11 7 6 5 4 4 3 2 2 3 1 4 11 13 9 10 7 9 13 18 25 22 23 23 9 4 2
9 11 11 11 10 9 9 7 5 5 4 5 6 2 6 2 2 6 8 4 4 3 2 2 2 5 4 6 1 4 8 9 1 14 4 9 17 24 23 21 22 23 22 10 14
7 9 10 11 11 11 12 7 5 6 5 2 4 3 3 1 2 10 11 5 6 1 2 4 1 3 4 6 4 6 5 8 6 16 9 4 7 20 24 21 21 23 20 19 19
7 8 9 10 10 13 10 4 3 2 3 2 3 2 2 6 9 6 7 6 8 4 6 3 5 3 6 5 3 7 6 5 9 14 5 13 9 14 21 22 22 21 19 19 20
6 8 9 9 10 12 8 2 5 3 5 2 3 3 6 6 5 7 7 4 5 4 5 9 6 3 6 9 6 9 4 6 7 7 16 12 17 18 19 21 19 20 19 19 21
6 8 9 9 9 9 5 3 5 5 10 5 1 3 5 9 4 17 6 6 5 10 5 5 9 11 11 5 5 8 3 9 7 4 5 14 21 19 18 21 26 22 21 20 22
6 8 7 9 4 6 5 5 3 3 6 3 2 2 2 1 6 17 8 8 8 5 7 5 5 7 10 3 8 4 4 5 9 1 6 3 15 13 19 19 19 21 22 24 26
4 6 7 6 4 6 5 4 1 0 5 2 2 3 4 4 4 12 8 3 6 6 5 5 5 11 7 7 16 4 0 10 7 8 3 6 2 23 19 15 19 21 19 19 21
4 6 8 1 5 1 3 2 1 1 7 4 4 5 6 3 5 2 4 2 5 3 4 2 4 9 14 7 11 4 2 14 10 2 2 7 1 11 19 19 24 25 25 24 25
4 4 9 6 6 3 0 2 1 3 4 2 3 2 4 7 5 11 4 5 3 5 2 4 7 7 8 12 6 8 18 7 3 1 2 8 3 6 18 30 31 27 26 25 24
5 3 3 4 4 1 2 2 3 8 5 2 2 6 4 7 5 6 8 6 2 3 5 2 5 2 5 16 3 16 4 1 2 2 5 6 1 7 14 19 22 23 25 25 25
11 10 6 0 3 3 2 3 7 6 3 1 2 4 3 6 6 9 6 10 8 9 10 9 4 7 5 9 5 16 6 4 6 7 1 6 5 1 9 17 17 20 23 24 22
8 6 8 4 3 2 3 6 3 1 2 0 2 2 4 5 4 7 3 6 6 6 4 5 9 9 11 4 7 7 5 4 0 4 5 7 6 1 12 16 15 15 18 22 24
11 2 4 4 3 2 5 3 6 3 4 7 2 3 2 1 4 5 5 1 2 2 6 6 3 6 3 4 5 7 7 2 1 2 2 4 4 4 18 21 21 21 23 24 24
4 3 2 4 4 3 5 5 2 1 2 1 3 1 1 5 4 6 3 3 3 4 3 2 5 3 6 6 6 5 3 4 4 6 5 4 2 8 18 24 22 22 22 22 22
4 4 1 2 2 5 2 3 2 1 1 1 3 4 3 3 3 3 2 0 1 2 4 4 4 7 2 6 4 7 6 5 1 2 1 5 1 3 6 15 19 18 18 20 21
4 4 2 1 4 1 3 3 3 2 2 1 3 4 4 2 4 2 3 5 1 2 3 3 5 3 3 3 2 1 2 3 3 5 2 1 3 2 3 11 12 15 16 18 17
4 4 1 1 4 2 2 2 1 3 3 3 3 2 1 4 4 1 3 3 3 1 1 4 2 4 9 7 3 3 3 2 2 1 0 2 3 2 8 15 13 14 15 17 17
6 4 2 3 2 6 5 4 4 1 3 3 4 3 3 3 4 5 3 2 2 2 6 4 3 6 6 7 2 5 5 4 3 2 2 5 11 13 17 20 19 16 13 15 15
2 2 1 4 3 3 3 6 5 5 1 3 1 3 6 5 2 3 2 3 3 5 3 4 3 2 4 5 3 4 4 5 2 2 3 3 5 13 13 17 14 15 15 16 16
7 7 2 4 4 6 3 7 8 4 6 4 4 6 4 6 6 8 7 3 4 3 4 4 2 2 4 2 3 5 4 4 2 3 6 5 7 4 14 12 12 13 15 17 17
1 2 4 6 5 4 6 6 8 10 1 2 8 6 4 4 4 5 4 6 6 6 2 3 4 4 5 4 4 5 5 3 3 3 2 3 5 10 16 17 13 11 15 17 17
Wind_Direction
13 16 21 14 11 11 11 11 16 23 26 16 3 356 350 343 2 29 5 327 347 337 354 326 37 345 47 79 87 139 190 259 265 292 292 288 303 296 272 264 275 257 256 263 278
9 11 15 13 9 9 7 3 4 9 9 2 347 341 345 9 71 56 326 338 337 347 4 358 345 13 49 62 81 115 212 242 234 271 288 295 302 294 292 273 270 277 273 267 269
8 9 7 9 8 2 360 360 355 8 2 355 349 341 350 81 84 307 336 341 333 5 336 296 279 58 56 355 198 157 244 272 290 277 293 301 292 305 301 290 293 288 278 278 258
6 7 4 1 359 7 351 344 352 359 18 14 0 353 61 71 50 285 343 341 345 355 50 30 21 37 36 341 14 276 272 275 281 299 316 313 325 330 22 327 313 297 263 258 224
3 2 3 360 349 3 356 334 344 332 357 354 354 2 55 43 0 341 344 344 21 20 40 26 31 21 351 312 320 222 285 299 288 295 300 45 19 338 355 337 343 338 235 227 231
358 358 356 354 353 353 1 332 347 331 328 328 343 6 75 71 296 351 346 348 17 20 347 16 360 286 276 291 233 291 280 278 299 312 338 64 33 21 352 344 358 9 331 189 190
358 355 351 352 350 346 350 322 340 342 342 339 349 57 67 143 41 355 3 302 314 333 17 347 331 50 305 314 358 294 326 331 20 344 335 346 35 16 355 359 2 11 12 25 3
360 355 348 353 345 340 335 311 308 305 295 313 33 64 92 11 345 7 351 337 339 63 302 337 25 77 14 311 7 360 37 349 335 358 6 28 17 9 4 5 11 8 5 357 354
349 351 348 349 348 340 345 328 302 4 88 66 47 70 22 341 12 348 15 330 302 9 20 26 51 51 349 18 4 32 315 318 319 11 44 50 2 354 10 12 15 6 1 353 345
344 346 347 346 348 344 347 12 51 56 4 47 71 42 22 316 318 341 336 1 25 348 11 23 42 37 8 22 356 319 343 305 305 344 53 53 31 7 12 15 12 9 0 353 347
346 351 345 342 345 2 34 47 21 3 36 85 151 115 328 318 11 357 346 349 21 58 18 358 31 4 322 311 254 269 234 289 307 221 84 61 41 10 3 7 14 5 1 354 351
350 347 344 342 5 28 70 79 93 179 90 23 53 33 53 358 1 354 8 61 38 34 335 22 25 322 302 293 326 303 294 329 307 269 328 85 62 19 14 12 5 358 1 358 349
355 348 345 350 87 39 75 122 124 203 92 15 55 52 334 27 47 345 20 25 56 33 3 82 309 318 349 353 3 352 337 337 278 308 233 310 100 9 10 5 9 9 2 359 356
17 1 9 170 67 238 50 311 19 76 76 332 348 8 357 4 65 26 7 143 44 32 337 299 334 348 339 8 2 322 338 314 290 295 348 20 29 26 356 0 8 5 1 354 351
46 30 55 56 132 56 155 298 326 61 28 24 4 346 17 72 315 5 332 35 56 352 14 271 342 338 349 344 336 265 322 289 279 47 29 355 57 7 356 0 1 357 353 353 349
78 56 131 44 61 357 334 322 63 45 264 140 26 353 40 21 26 310 13 23 99 14 357 330 295 309 315 307 265 320 356 312 31 50 42 311 58 12 9 354 339 346 349 350 347
99 73 68 60 88 316 7 33 35 131 36 1 36 36 103 12 24 12 40 26 35 21 9 334 354 330 358 329 333 3 27 350 8 14 288 334 42 266 350 360 345 343 345 348 349
114 97 61 58 83 343 43 49 112 223 182 218 116 94 87 6 38 8 53 27 43 60 78 28 349 3 341 28 304 343 57 108 349 353 309 352 9 29 25 358 351 347 347 351 353
134 40 52 2 345 54 71 69 218 196 140 153 106 120 108 85 125 81 38 92 7 50 97 19 291 318 337 323 359 335 41 324 267 242 291 330 342 139 359 354 356 353 354 355 352
100 78 30 322 302 74 77 238 169 7 90 55 163 310 122 352 69 62 5 297 347 47 114 172 325 346 311 3 18 54 348 39 5 23 350 342 18 326 346 348 348 352 349 347 347
70 93 288 317 282 59 171 213 143 84 42 64 159 116 80 136 88 79 196 120 294 27 73 126 107 292 20 28 331 336 13 17 158 66 27 317 3 251 329 345 339 345 340 342 342
129 106 355 352 70 60 148 164 117 160 81 70 94 102 121 130 97 124 138 161 348 134 46 43 141 281 221 313 270 295 16 70 95 320 52 266 287 185 230 350 339 334 338 339 341
95 114 42 309 139 184 153 110 120 149 184 147 95 62 93 109 91 200 128 127 53 39 96 213 19 6 349 357 11 27 12 41 183 110 232 315 293 346 344 352 348 336 339 340 338
114 134 72 55 334 140 151 178 168 94 132 102 124 96 105 85 23 164 135 117 82 345 55 90 109 148 183 211 160 330 334 6 103 110 256 235 301 321 342 342 340 338 340 340 335
104 150 177 158 221 141 112 149 142 172 101 165 90 201 152 115 33 156 131 108 60 347 65 103 126 148 259 248 225 248 241 335 80 166 188 259 273 300 328 329 323 326 329 341 343
143 142 56 97 96 103 200 217 163 148 140 214 184 147 141 140 197 187 136 170 175 28 65 328 166 101 315 208 15 269 221 315 223 252 267 270 288 214 324 317 330 332 335 341 341
159 50 113 138 138 140 205 175 178 130 40 344 152 120 123 138 119 98 96 121 126 137 132 78 112 71 272 353 349 349 225 211 276 249 199 305 261 326 322 326 329 327 342 334 336